Location: Buckhorn Peak
(37.6641°N, 120.1241°W)
Time: 02:30:04
(UTC+00:00)

BlueWalker 3 - Pass Details

Date: 21 December 2025
Orbit: 452 x 463 km, 53.2° (Epoch: 13 January)

Event Time Altitude Azimuth Distance (km) Brightness Sun altitude
Exits shadow 13:24:35 10° 199° (SSW) 1,598 4.4 -20.5°
Reaches altitude 10° 13:24:38 10° 198° (SSW) 1,575 4.4 -20.5°
Maximum altitude 13:27:54 35° 131° (SE) 744 3.3 -19.9°
Drops below altitude 10° 13:31:12 10° 64° (ENE) 1,590 5.1 -19.3°
Sets 13:33:27 0° 56° (NE) 2,469 6.0 -18.8°
